Fort Knox, KY

4:14 PM EDT on June 25, 2017 (GMT -0400)
Godman Army Air Field

Weather History for KFTK - July, 2012

Change the Weather History Date:

Monday, July 23, 2012

  Actual Average Record
Temperature  
Mean Temperature 84 °F -  
Max Temperature 95 °F 83 °F 98 °F (1999)
Min Temperature 72 °F 65 °F 60 °F (1996)
Cooling Degree Days 18    
Growing Degree Days 34 (Base 50)    
Moisture  
Dew Point 71 °F    
Average Humidity 70    
Maximum Humidity 94    
Minimum Humidity 42    
Precipitation  
Precipitation 0.00 in - - ()
Sea Level Pressure  
Sea Level Pressure 30.07 in    
Wind  
Wind Speed 6 mph (SW)    
Max Wind Speed 12 mph    
Max Gust Speed -    
Visibility 10 miles    
Events      
Averages and records for this station are not official NWS values.
T = Trace of Precipitation, MM = Missing Value Source: NWS Daily Summary

Daily Weather History Graph

Daily Weather History Graph

Search for Another Location

Airport or City:

Trip Planner

Search our weather history database for the weather conditions in past years. The results will help you decide how hot, cold, wet, or windy it might be!

Date:

Astronomy

Jul. 23, 2012 Rise Set
Actual Time 6:40 AM EDT 9:00 PM EDT
Civil Twilight 6:10 AM EDT 9:30 PM EDT
Nautical Twilight 5:33 AM EDT 10:06 PM EDT
Astronomical Twilight 4:52 AM EDT 10:47 PM EDT
Moon 11:24 AM EDT (7/23) 11:21 PM EDT (7/23)
Length of Visible Light 15h 19m
Length of Day
14h 20m
Waxing Crescent, 21% of the Moon is Illuminated
Jul 23
Waxing Crescent
Jul 26
First Quarter
Aug 1
Full
Aug 9
Last Quarter
Aug 17
New

Hourly Weather History & Observations

Time (EDT) Temp. Heat Index Dew Point Humidity Pressure Visibility Wind Dir Wind Speed Gust Speed Precip Events Conditions
12:55 AM 76.5 °F - 71.2 °F 84% 30.12 in 10.0 mi SSW 4.6 mph - N/A   Clear
1:55 AM 75.6 °F - 70.9 °F 85% 30.11 in 10.0 mi South 5.8 mph - N/A   Clear
2:55 AM 75.2 °F - 70.7 °F 86% 30.11 in 10.0 mi SSW 4.6 mph - N/A   Clear
3:55 AM 73.4 °F - 70.2 °F 90% 30.11 in 10.0 mi SSW 4.6 mph - N/A   Clear
4:55 AM 73.2 °F - 70.5 °F 91% 30.10 in 10.0 mi SSW 5.8 mph - N/A   Clear
5:55 AM 72.5 °F - 70.3 °F 93% 30.11 in 10.0 mi SSW 4.6 mph - N/A   Clear
6:55 AM 72.1 °F - 70.3 °F 94% 30.12 in 10.0 mi Calm Calm - N/A   Clear
7:55 AM 74.8 °F - 71.6 °F 90% 30.12 in 10.0 mi South 3.5 mph - N/A   Clear
8:55 AM 79.9 °F - 73.2 °F 80% 30.13 in 10.0 mi SW 6.9 mph - N/A   Clear
9:55 AM 84.0 °F 90.5 °F 73.4 °F 70% 30.12 in 10.0 mi WSW 9.2 mph - N/A   Clear
10:55 AM 88.2 °F 95.5 °F 72.9 °F 60% 30.12 in 10.0 mi WSW 11.5 mph - N/A   Clear
1:55 PM 92.1 °F 100.5 °F 72.7 °F 53% 30.08 in 10.0 mi WSW 10.4 mph - N/A   Partly Cloudy
2:55 PM 93.6 °F 101.3 °F 71.8 °F 49% 30.07 in 10.0 mi WSW 11.5 mph - N/A   Partly Cloudy
3:55 PM 94.8 °F 102.1 °F 70.9 °F 46% 30.04 in 10.0 mi SW 10.4 mph - N/A   Partly Cloudy
4:55 PM 93.6 °F 99.5 °F 69.6 °F 46% 30.03 in 10.0 mi WSW 11.5 mph - N/A   Clear
5:55 PM 95.0 °F 100.7 °F 69.4 °F 43% 30.01 in 10.0 mi SW 9.2 mph - N/A   Clear
6:55 PM 93.9 °F 98.0 °F 67.5 °F 42% 30.01 in 10.0 mi SW 10.4 mph - N/A   Clear
7:55 PM 90.9 °F 98.3 °F 72.1 °F 54% 30.01 in 10.0 mi West 3.5 mph - N/A   Clear
8:55 PM 85.8 °F 91.8 °F 72.1 °F 63% 30.01 in 10.0 mi WSW 3.5 mph - N/A   Clear
9:55 PM 82.6 °F 87.1 °F 71.2 °F 68% 30.01 in 10.0 mi SSW 5.8 mph - N/A   Clear
10:55 PM 81.5 °F 86.3 °F 72.3 °F 74% 30.03 in 10.0 mi SSW 5.8 mph - N/A   Clear
11:55 PM 81.9 °F 86.4 °F 71.8 °F 71% 30.03 in 10.0 mi SSW 8.1 mph - N/A   Scattered Clouds